Location: *
(44.1392°N, 4.8079°E)
Time: 08:44:46
(UTC+00:00)

USA 308 - Pass Details

Date: 21 June 2021
Orbit: 566 x 576 km, 54.0° (Epoch: 13 July)

Event Time Altitude Azimuth Distance (km) Brightness Sun altitude
Exits shadow 02:29:11 - 268° (W) 2,033 5.3 -12.4°
Reaches altitude 10° 02:29:40 10° 270° (W) 1,861 5.2 -12.4°
Maximum altitude 02:33:33 35° 337° (NNW) 928 4.2 -11.9°
Drops below altitude 10° 02:37:28 10° 44° (NE) 1,866 7.1 -11.5°
Sets 02:39:52 0° 54° (NE) 2,765 8.2 -11.2°
